STARLINK-31084, 58630

Orbit data source: Space-Track

STARLINK-31084, 58630 is a payload satellite owned by SpaceX/Seattle (US) in LEO that was launched on Sat, 23 Dec 2023 UTC via an FALCON 9 launch vehicle from the Air Force Eastern Test Range (AFETR). Payload-class satellites include a variety of spacecraft equipped with specific instruments for various scientific and technological missions. These include communications satellites like Starlink; space stations such as the ISS; scientific satellites like the Hubble; Earth observation satellites from companies like Planet Labs, Umbra, and HawkEye 360; GPS; miniature CubeSats for education and research; and military/defense satellites.

Loading next visibility...
Identifier
58630, 2023-203N
Orbit
LEO
Country
Flag of USUS
Related business
Manufacturer
SpaceX/Seattle
Mission
Operational Commercial Communications
Bus & Motor
STARLINK V2M, Unknown motor
Mass
730 kg wet, ~700 kg dry
Launch date (UTC)
2023-12-23 (2 years ago)
Launch vehicle
FALCON 9
Launch site
Air Force Eastern Test Range (AFETR)
Object type
Payload
Rocket body
Debris
Shape & HBR
Box + 2 Pan, 17.7 m
Radar Cross Section
33.884 m², Large (>1 m²)

Expand to show TLE details & history
Last TLE update: 3 days ago

TLE from 3 days ago
0 STARLINK-31084
1 58630U 23203N   26170.58823614  .00000790  00000-0  38237-4 0  9998
2 58630  43.0033 215.2183 0001748 259.0898 100.9757 15.27578321139104
Epoch: 2026-06-19T14:07Z
TLE epoch observation values (Epoch: 2026-06-19T14:07:03.602Z)
Latitude
-0.00002°
Longitude
95.63821°
Altitude
483.058 km
Speed
7.626 km/s
True Right ascension
14h 20m 52s
True Declination
0° 00' 00"
Sunlit
Object was in full shadow at epoch
Visualization orbit readout
Latitude
Unknown
Longitude
Unknown
Altitude
Unknown
Speed
Unknown
Apparent Right ascension
Unknown
Apparent Declination
Unknown
Sunlit
N/A
Visualization observer readout
Local Sidereal Time
23:08:45
Azimuth
Unknown
Elevation
Unknown
Doppler factor
Unknown
Orbital elements
Apogee altitude
486.198 km
Perigee altitude
483.799 km
Semi-major axis
6,863.136 km
Eccentricity
0.00017
Inclination
43.0033°
RAAN
215.2183°
Arg. of periapsis
259.0898°
True anomaly
100.99536°
Mean anomaly
100.9757°
Eccentric anomaly
100.98553°
Mean motion
3.81733 °/min
Orbital period
94.31 mins
BSTAR
0.000038237
Loading maneuver chart data...
Computing Atmospheric mass density...
Loading historical data...
Loading historical data...
Loading historical data...
Loading historical data...
Loading historical data...
Loading historical data...
Loading historical data...

Documentation

Showing up to 5 results
|